THORAD DELTA 1 DEB, 8163

Orbit data source: Space-Track

THORAD DELTA 1 DEB, 8163 is space debris in SSO originally from a launch on Fri, 15 Nov 1974 UTC launched from the Air Force Western Test Range (AFWTR). Debris objects in space refer to the collection of defunct objects orbiting the Earth. Examples of debris include non-operational satellites, rocket bodies, and fragments generated from explosions, collisions, or faulty payload assembly.

Loading next visibility...
Identifier
8163, 1974-089AD
Orbit
SSO
Country
Flag of USUS
Related business
Manufacturer
Unknown
Mission
Spacecraft
Bus & Motor
Unknown
Mass
Unknown
Launch date (UTC)
1974-11-15 (51 years ago)
Launch vehicle
Unknown
Launch site
Air Force Western Test Range (AFWTR)
Object type
Payload
Rocket body
Debris
Shape & HBR
Unknown shape, 1.1 m
Radar Cross Section
Small (<0.1 m²)

Expand to show TLE details & history
Last TLE update: 2 days ago

TLE from 2 days ago
0 THORAD DELTA 1 DEB
1 08163U 74089AD  26093.49656612  .00000370  00000-0  26328-2 0  9998
2 08163 102.4907 113.9828 0321749 193.2862 165.9570 12.39365353301436
Epoch: 2026-04-03T11:55Z
TLE epoch observation values (Epoch: 2026-04-03T11:55:03.312Z)
Latitude
-0°
Longitude
103.38914°
Altitude
1,758.515 km
Speed
6.89 km/s
True Right ascension
07h 35m 55s
True Declination
0° 00' 00"
Sunlit
Object was in daylight at epoch
Visualization orbit readout
Latitude
Unknown
Longitude
Unknown
Altitude
Unknown
Speed
Unknown
Apparent Right ascension
Unknown
Apparent Declination
Unknown
Sunlit
N/A
Visualization observer readout
Local Sidereal Time
01:04:21
Azimuth
Unknown
Elevation
Unknown
Doppler factor
Unknown
Orbital elements
Apogee altitude
1,760.596 km
Perigee altitude
1,253.196 km
Semi-major axis
7,885.033 km
Eccentricity
0.03217
Inclination
102.4907°
RAAN
113.9828°
Arg. of periapsis
193.2862°
True anomaly
166.81797°
Mean anomaly
165.957°
Eccentric anomaly
166.39077°
Mean motion
3.09983 °/min
Orbital period
116.14 mins
BSTAR
0.0026328
Loading maneuver chart data...
Computing Atmospheric mass density...

Documentation

Showing up to 5 results
|